カタログに戻る

USA 181 DEB

運用中LEO
NORAD 28541·DEBRIS·🇺🇸 United States

打ち上げ Feb 3, 2005 から Cape Canaveral Space Force Station

Loading…

次のパス (今後24時間)

TLE

古いSource: Mike McCants

元期: Sep 1, 2026, 21:26 UTC

1 28541U 05004C   26244.89356515 0.00000000  00000-0  00000-0 0    02
2 28541  63.4002 231.7942 0561733   4.5002 355.4998 13.40702833    05

AllMySatでUSA 181 DEBをリアルタイム追跡

Download on the App Store